Weather History for Saturna Island, BC

Change the Weather History Date:

Wednesday, March 19, 2014

  Actual Average Record
Temperature  
Mean Temperature 46 °F -  
Max Temperature 52 °F - - ()
Min Temperature 39 °F - - ()
Degree Days  
Heating Degree Days 19    
Moisture  
Dew Point 40 °F    
Average Humidity 83    
Maximum Humidity 94    
Minimum Humidity 66    
Precipitation  
Precipitation 0.24 in - - ()
Sea Level Pressure  
Sea Level Pressure 30.04 in    
Wind  
Wind Speed 10 mph ()    
Max Wind Speed 28 mph    
Max Gust Speed 33 mph    
T = Trace of Precipitation, MM = Missing Value Source: Averaged Metar Reports

Daily Weather History Graph

Daily Weather History Graph

Search for Another Location

Airport:

Trip Planner

Search our weather history database for the weather conditions in past years. The results will help you decide how hot, cold, wet, or windy it might be!

Date:

Astronomy

Mar. 19, 2014 Rise Set
Actual Time 7:16 AM PDT 7:23 PM PDT
Civil Twilight 6:45 AM PDT 7:55 PM PDT
Nautical Twilight 6:08 AM PDT 8:32 PM PDT
Astronomical Twilight 5:30 AM PDT 9:10 PM PDT
Moon 11:06 PM PDT (3/19) 8:30 AM PDT (3/19)
Length of Visible Light 13h 09m
Length of Day
12h 06m
Waning Gibbous, 90% of the Moon is Illuminated
Mar 19
Waning Gibbous
Mar 23
Last Quarter
Mar 30
New
Apr 7
First Quarter
Apr 15
Full

Hourly Weather History & Observations

Time (PDT) Temp. Windchill Dew Point Humidity Pressure Visibility Wind Dir Wind Speed Gust Speed Precip Events Conditions
12:00 AM 43.5 °F 39.4 °F 41.4 °F 92% 30.15 in - WSW 6.9 mph - 0.02 in   Unknown
1:00 AM 44.2 °F 41.0 °F 42.4 °F 93% 30.13 in - SW 5.8 mph - 0.04 in   Unknown
2:00 AM 44.6 °F 40.2 °F 43.0 °F 94% 30.11 in - South 8.1 mph - 0.04 in   Unknown
3:00 AM 45.0 °F 40.1 °F 43.2 °F 93% 30.08 in - South 9.2 mph - 0.02 in   Unknown
4:00 AM 45.0 °F 37.6 °F 43.2 °F 93% 30.05 in - SSW 17.3 mph - 0.05 in   Unknown
5:00 AM 45 °F - 43 °F 90% 30.03 in - SSW 17.3 mph - -  
5:00 AM 44.6 °F 37.2 °F 43.0 °F 94% 30.03 in - SSW 17.3 mph - 0.09 in   Unknown
6:00 AM 44.6 °F 37.4 °F 43.0 °F 94% 30.02 in - SSW 16.1 mph - 0.01 in   Unknown
7:00 AM 44.8 °F 36.2 °F 43.2 °F 94% 29.99 in - SSW 23.0 mph - N/A   Unknown
8:00 AM 44.6 °F 36.4 °F 43.0 °F 94% 29.98 in - SW 20.7 mph - 0.01 in   Unknown
9:00 AM 45.0 °F 37.1 °F 43.3 °F 94% 29.98 in - SW 19.6 mph - N/A   Unknown
10:00 AM 45.3 °F 36.1 °F 43.2 °F 92% 29.96 in - SW 27.6 mph 33.4 mph N/A   Unknown
11:00 AM 48 °F - 44 °F 82% 29.97 in - WSW 19.6 mph - -  
11:00 AM 47.7 °F - 44.2 °F 88% 29.97 in - WSW 19.6 mph 26.5 mph N/A   Unknown
12:00 PM 46.8 °F - 43.9 °F 90% 29.99 in - WSW 13.8 mph - N/A   Unknown
1:00 PM 51.6 °F - 42.3 °F 70% 29.98 in - WSW 12.7 mph - N/A   Unknown
2:00 PM 44.6 °F 42.2 °F 38.3 °F 79% 30.00 in - WNW 4.6 mph - N/A   Unknown
3:00 PM 47.3 °F - 38.3 °F 71% 30.01 in - NNW 2.3 mph - N/A   Unknown
4:00 PM 47.5 °F - 37.6 °F 69% 30.02 in - NW 3.5 mph - N/A   Unknown
5:00 PM 44 °F - 36 °F 66% 30.04 in - NW 3.5 mph - -  
5:00 PM 44.2 °F 42.7 °F 36.3 °F 74% 30.04 in - NW 3.5 mph - N/A   Unknown
6:00 PM 43.5 °F 41.9 °F 36.0 °F 75% 30.06 in - NW 3.5 mph - N/A   Unknown
7:00 PM 42.1 °F - 36.0 °F 79% 30.07 in - North 2.3 mph - N/A   Unknown
8:00 PM 41.5 °F 39.6 °F 35.6 °F 79% 30.09 in - NW 3.5 mph - N/A   Unknown
9:00 PM 41.7 °F 38.8 °F 31.8 °F 68% 30.10 in - West 4.6 mph - N/A   Unknown
10:00 PM 42.1 °F 39.2 °F 31.8 °F 67% 30.13 in - WNW 4.6 mph - N/A   Unknown
11:00 PM 40 °F - 33 °F 69% 30.14 in - West 8.1 mph - -  
11:00 PM 39.9 °F 34.5 °F 33.3 °F 77% 30.14 in - West 8.1 mph - N/A   Unknown